GW3137 Weather Reports


time (UTC)temp
C
wind
direction
speed
KPH
gust
KPH
rain 1hr
cm
rain 24hr
cm
rain mn
cm
humidity
%
barometer
mb
20260904103703 12 68 0.0 0.0 0.00 0.71 0.00 93 1011.0
20260904103204 12 68 0.0 0.0 0.00 0.71 0.00 92 1011.0
20260904100704 12 68 0.0 0.0 0.00 0.71 0.00 92 1010.7
20260904093703 13 68 0.0 0.0 0.00 0.71 0.00 92 1010.7
20260904093204 13 68 0.0 4.8 0.00 0.71 0.00 92 1010.8
20260904090204 12 80 3.2 4.8 0.00 0.71 0.00 92 1010.7
20260904083704 12 90 3.2 4.8 0.00 0.71 0.00 92 1010.7
20260904083203 12 101 3.2 4.8 0.00 0.71 0.00 92 1010.8
20260904073704 13 68 0.0 1.6 0.05 0.71 0.00 92 1010.8
20260904073204 13 68 0.0 4.8 0.05 0.71 0.00 91 1010.8
20260904070704 13 68 0.0 0.0 0.08 0.71 0.00 91 1010.9
20260904070205 13 68 0.0 0.0 0.08 0.71 0.00 91 1010.9
20260904063703 13 68 0.0 0.0 0.03 0.66 0.66 90 1010.9
20260904063203 13 68 1.6 11.3 0.03 0.66 0.66 90 1010.8
20260904060704 13 82 1.6 4.8 0.00 0.64 0.64 90 1010.7
20260904060204 13 80 3.2 4.8 0.00 0.64 0.64 90 1010.6
20260904053704 13 80 0.0 0.0 0.00 0.64 0.64 91 1010.6
20260904053204 13 80 0.0 0.0 0.00 0.64 0.64 91 1010.6
20260904050704 14 80 0.0 0.0 0.00 0.64 0.64 91 1010.7
20260904050203 14 80 0.0 0.0 0.00 0.64 0.64 92 1010.6
20260904043204 13 80 0.0 0.0 0.00 0.64 0.64 91 1010.8
20260904040703 13 80 0.0 0.0 0.00 0.64 0.64 91 1010.6
20260904040205 14 80 0.0 0.0 0.00 0.64 0.64 90 1010.5
20260904033704 14 80 0.0 0.0 0.00 0.64 0.64 90 1010.4
20260904033204 14 80 0.0 4.8 0.00 0.64 0.64 90 1010.3
20260904030704 15 142 1.6 3.2 0.00 0.64 0.64 90 1010.1
20260904030204 15 142 0.0 3.2 0.00 0.64 0.64 89 1010.1
20260904023704 15 142 0.0 3.2 0.03 0.64 0.64 86 1010.0
20260904023204 15 142 1.6 9.7 0.03 0.64 0.64 87 1010.0
20260904020704 15 132 3.2 4.8 0.28 0.64 0.64 88 1009.9
20260904013704 15 145 1.6 4.8 0.43 0.61 0.61 88 1009.8
20260904013204 15 239 0.0 8.0 0.43 0.61 0.61 86 1009.9
20260904010204 16 160 3.2 16.1 0.18 0.38 0.36 81 1009.8
20260904003704 18 28 1.6 4.8 0.00 0.23 0.18 64 1009.4
20260904003203 18 41 1.6 12.9 0.00 0.25 0.18 64 1009.3
20260904000704 19 15 1.6 4.8 0.00 0.28 0.18 64 1009.4
20260904000205 19 27 3.2 12.9 0.00 0.28 0.18 63 1009.3
20260903233704 20 56 3.2 8.0 0.00 0.28 0.18 61 1009.4
20260903233203 20 59 4.8 9.7 0.00 0.28 0.18 61 1009.4
20260903230704 21 1 3.2 9.7 0.00 0.30 0.18 59 1009.3
20260903230203 21 40 4.8 9.7 0.00 0.30 0.18 63 1009.4
20260903223704 19 31 3.2 9.7 0.00 0.38 0.18 66 1009.6
20260903223203 19 7 4.8 8.0 0.00 0.41 0.18 68 1009.6
20260903220704 18 44 0.0 3.2 0.00 0.48 0.18 68 1009.7
20260903220204 18 44 1.6 8.0 0.00 0.48 0.18 69 1009.8
20260903213704 17 198 1.6 4.8 0.00 0.56 0.18 68 1009.8
20260903213204 18 266 4.8 11.3 0.00 0.56 0.18 66 1009.8
20260903210704 18 230 3.2 20.9 0.00 0.61 0.18 68 1009.7
20260903203205 19 287 6.4 16.1 0.00 0.64 0.18 62 1009.5
20260903200704 17 279 3.2 11.3 0.00 0.64 0.18 66 1009.5
20260903200204 17 292 4.8 16.1 0.00 0.64 0.18 67 1009.5
20260903193704 17 246 3.2 11.3 0.00 0.71 0.18 68 1009.5
20260903193204 17 185 4.8 19.3 0.00 0.71 0.18 67 1009.5
20260903190704 18 180 3.2 8.0 0.00 0.71 0.18 68 1009.4
20260903190204 17 160 3.2 14.5 0.00 0.71 0.18 69 1009.5
20260903183703 17 244 3.2 8.0 0.00 0.71 0.18 70 1009.5
20260903183204 16 188 3.2 11.3 0.00 0.71 0.18 71 1009.5
20260903180703 16 159 4.8 8.0 0.00 0.71 0.18 73 1009.5
20260903180204 16 163 6.4 14.5 0.00 0.71 0.18 73 1009.4
20260903173704 16 156 4.8 11.3 0.00 0.71 0.18 75 1009.3
20260903170704 16 119 1.6 4.8 0.00 0.71 0.18 81 1009.1
20260903170204 15 61 1.6 11.3 0.00 0.71 0.18 83 1009.1
20260903163704 15 136 4.8 9.7 0.00 0.71 0.18 83 1009.1
20260903163204 15 78 1.6 4.8 0.00 0.71 0.18 83 1009.1
20260903160204 14 163 1.6 11.3 0.00 0.71 0.18 85 1009.2
20260903153703 13 123 3.2 4.8 0.00 0.71 0.18 88 1009.0
20260903153204 13 71 3.2 14.5 0.00 0.71 0.18 88 1008.9
20260903150704 12 104 4.8 11.3 0.00 0.71 0.18 89 1008.9
20260903143704 12 90 4.8 11.3 0.00 0.71 0.18 90 1008.7
20260903143204 12 96 4.8 12.9 0.03 0.71 0.18 90 1008.7
20260903140704 12 103 3.2 12.9 0.05 0.71 0.18 91 1008.7
20260903133703 12 96 3.2 4.8 0.13 0.71 0.18 91 1008.6
20260903133204 12 86 3.2 4.8 0.10 0.69 0.15 91 1008.6
20260903130704 12 129 3.2 4.8 0.13 0.66 0.13 90 1008.5
20260903123704 12 254 1.6 3.2 0.05 0.58 0.05 90 1008.5
20260903123204 12 134 0.0 8.0 0.05 0.58 0.05 89 1008.4
20260903120703 12 220 1.6 4.8 0.00 0.53 0.00 85 1008.2
20260903120204 13 100 0.0 12.9 0.00 0.53 0.00 85 1008.0
20260903113204 13 97 3.2 11.3 0.00 0.53 0.00 86 1007.8